K1ADK-1 Weather Reports


time (UTC)temp
C
wind
direction
speed
KPH
gust
KPH
rain 1hr
cm
rain 24hr
cm
rain mn
cm
humidity
%
barometer
mb
20260504175516 20 203 14.5 25.7 0.00 0.00 0.00 42 1011.1
20260504174516 19 203 12.9 27.4 0.00 0.00 0.00 39 1011.2
20260504173536 19 203 14.5 32.2 0.00 0.00 0.00 36 1011.4
20260504172516 20 225 9.7 24.1 0.00 0.00 0.00 39 1011.4
20260504171516 19 203 8.0 20.9 0.00 0.00 0.00 41 1011.6
20260504170516 19 203 12.9 27.4 0.00 0.00 0.00 39 1011.7
20260504150516 18 225 12.9 27.4 0.00 0.00 0.00 35 1013.0
20260504140516 17 225 11.3 22.5 0.00 0.00 0.00 41 1012.9
20260504130516 15 225 8.0 20.9 0.00 0.00 0.00 47 1013.5
20260504110516 10 225 6.4 16.1 0.00 0.00 0.00 55 1013.9
20260504100515 9 225 3.2 6.4 0.00 0.00 0.00 55 1013.5
20260504081515 9 225 3.2 8.0 0.00 0.00 0.00 53 1012.9
20260504080515 10 225 3.2 6.4 0.00 0.00 0.00 53 1012.9
20260504050537 8 203 1.6 4.8 0.00 0.00 0.00 58 1012.2
20260504045517 8 225 3.2 6.4 0.00 0.00 0.00 58 1012.3
20260504044537 8 225 3.2 6.4 0.00 0.00 0.00 58 1012.2
20260504043517 8 248 1.6 4.8 0.00 0.00 0.00 58 1012.1
20260504042517 7 225 1.6 9.7 0.00 0.00 0.00 58 1012.1
20260504041517 7 0.0 3.2 0.00 0.00 0.00 60 1012.1
20260504040537 7 225 1.6 4.8 0.00 0.00 0.00 60 1012.0
20260504035517 6 0.0 1.6 0.00 0.00 0.00 62 1012.1
20260504034517 7 0.0 0.0 0.00 0.00 0.00 61 1012.0
20260504033517 7 0.0 0.0 0.00 0.00 0.00 60 1011.8
20260504032517 7 0.0 0.0 0.00 0.00 0.00 61 1011.9
20260504031537 7 0.0 0.0 0.00 0.00 0.00 60 1011.9
20260504030517 7 0.0 0.0 0.00 0.00 0.00 59 1012.0
20260504025516 7 0.0 3.2 0.00 0.00 0.00 57 1012.0
20260504024517 7 0.0 1.6 0.00 0.00 0.00 54 1012.0
20260504023517 8 0.0 0.0 0.00 0.00 0.00 53 1012.1
20260504022517 8 0.0 0.0 0.00 0.00 0.00 55 1012.0
20260504021516 8 0.0 0.0 0.00 0.00 0.00 52 1011.9
20260504020516 8 0.0 0.0 0.00 0.00 0.00 52 1011.8
20260504015517 8 0.0 0.0 0.00 0.00 0.00 52 1011.9
20260504014517 9 0.0 0.0 0.00 0.00 0.00 53 1011.7
20260504013517 9 0.0 0.0 0.00 0.00 0.00 52 1011.7
20260504012517 10 0.0 0.0 0.00 0.00 0.00 50 1011.6
20260504011517 10 0.0 0.0 0.00 0.00 0.00 50 1011.5
20260504010557 10 0.0 0.0 0.00 0.00 0.00 48 1011.4
20260504005516 11 0.0 0.0 0.00 0.00 0.00 47 1011.4
20260504004536 11 0.0 0.0 0.00 0.00 0.00 44 1011.1
20260504003537 11 0.0 0.0 0.00 0.00 0.00 44 1011.0
20260504002516 12 0.0 0.0 0.00 0.00 0.00 41 1010.8
20260504001517 12 0.0 0.0 0.00 0.00 0.00 38 1010.5
20260504000516 12 0.0 1.6 0.00 0.00 0.00 37 1010.5
20260503235517 13 0.0 1.6 0.00 0.00 0.00 35 1010.4
20260503234517 13 0.0 3.2 0.00 0.00 0.00 34 1010.4
20260503233536 13 270 1.6 4.8 0.00 0.00 0.00 33 1010.3
20260503232516 13 293 3.2 8.0 0.00 0.00 0.00 31 1010.1
20260503231536 13 270 3.2 12.9 0.00 0.00 0.00 31 1010.1
20260503230516 13 293 4.8 14.5 0.00 0.00 0.00 30 1010.0
20260503225516 14 315 4.8 9.7 0.00 0.00 0.00 30 1010.0
20260503224516 14 315 8.0 17.7 0.00 0.00 0.00 30 1009.9
20260503223516 14 270 6.4 20.9 0.00 0.00 0.00 30 1009.9
20260503222516 14 315 6.4 14.5 0.00 0.00 0.00 31 1009.7
20260503221516 14 315 8.0 17.7 0.00 0.00 0.00 32 1009.7
20260503220536 14 293 8.0 22.5 0.00 0.00 0.00 31 1009.8
20260503215516 14 315 4.8 14.5 0.00 0.00 0.00 32 1009.8
20260503214516 14 270 8.0 24.1 0.00 0.00 0.00 29 1009.8
20260503213516 14 315 11.3 24.1 0.00 0.00 0.00 30 1009.8
20260503212536 14 315 9.7 19.3 0.00 0.00 0.00 30 1009.6
20260503211516 14 315 12.9 25.7 0.00 0.00 0.00 30 1009.7
20260503210516 14 315 9.7 20.9 0.00 0.00 0.00 32 1009.7
20260503205516 14 315 9.7 20.9 0.00 0.00 0.00 33 1009.7
20260503204516 13 293 11.3 25.7 0.00 0.00 0.00 33 1009.7
20260503203516 13 315 12.9 24.1 0.00 0.00 0.00 32 1009.6
20260503202516 14 315 8.0 19.3 0.00 0.00 0.00 33 1009.7
20260503201516 13 270 6.4 17.7 0.00 0.00 0.00 33 1009.8
20260503200516 13 315 11.3 27.4 0.00 0.00 0.00 34 1009.9
20260503195516 13 293 9.7 29.0 0.00 0.00 0.00 34 1009.9
20260503194516 13 293 8.0 22.5 0.00 0.00 0.00 34 1010.0
20260503193516 13 315 14.5 37.0 0.00 0.00 0.00 35 1010.1
20260503192516 13 315 12.9 32.2 0.00 0.00 0.00 36 1010.1
20260503191536 12 315 11.3 19.3 0.00 0.00 0.00 38 1010.2
20260503190516 12 315 14.5 32.2 0.00 0.00 0.00 37 1010.2
20260503185516 12 315 16.1 29.0 0.00 0.00 0.00 36 1010.3
20260503184516 12 315 16.1 30.6 0.00 0.00 0.00 35 1010.3
20260503183516 12 293 14.5 35.4 0.00 0.00 0.00 36 1010.3
20260503182516 12 315 17.7 33.8 0.00 0.00 0.00 35 1010.4
20260503181516 13 315 11.3 29.0 0.00 0.00 0.00 36 1010.4
20260503180516 12 315 14.5 25.7 0.00 0.00 0.00 34 1010.2